Flag for U.S.A. Weather past 2 weeks in Salt Lake City, Utah, U.S.A.

Now
72 °F

Broken clouds.


Feels Like: 74 °F
Forecast: 64 / 76 °F
Wind: 5 mph from Southwest

Location: Salt Lake City International Airport

Current Time: Jul 29, 2014 at 5:27:05 PM

Latest Report: Jul 29, 2014 at 4:53 PM


Visibility: 10 mi

Pressure: 30.02 "Hg

Humidity: 71%

Dew point: 62 °F

Location of Salt Lake CityLocation

Historic Weather in Salt Lake City — Graph

°F

Salt Lake City temperature yesterday

Maximum temperature yesterday: 91 °F (at 12:53 PM)
Minimum temperature yesterday: 68 °F (at 5:53 PM)
Average temperature yesterday: 80 °F

Past Weeks' High & Low Weather Summary

 TemperatureHumidityPressure
High102 °F (Jul 14, 4:53 PM)90% (Jul 29, 2:53 PM)30.22 "Hg (Jul 29, 2:53 PM)
Low64 °F (Jul 22, 5:53 AM)7% (Jul 21, 4:53 PM)29.68 "Hg (Jul 15, 6:53 PM)
Average82 °F29%29.86 "Hg
* Reported Jul 14 3:53 PM — Jul 29 3:53 PM, Salt Lake City, Weather by CustomWeather, © 2014

Note: Actual official high and low records may vary slightly from our data, if they occured in-between our weather recording intervals... More about our weather records

Advertising

Salt Lake City weather history for previous 24 hours

 ConditionsComfort  
Time TempWeatherWind HumidityBarometerVisibility
3:53 PM
Jul 29
69 °FBroken clouds.7 mph84%30.05 "Hg10 mi
2:53 PM67 °FLight rain. Cloudy.5 mph90%30.06 "Hg10 mi
1:53 PM68 °FThunderstorms. More clouds than sun.6 mph84%30.09 "Hg8 mi
12:53 PM71 °FThunderstorms. Partly sunny.5 mph68%30.06 "Hg10 mi
11:53 AM72 °FPartly sunny.15 mph71%30.05 "Hg10 mi
10:53 AM70 °FPartly sunny.8 mph81%30.07 "Hg10 mi
9:53 AM70 °FPartly sunny.8 mph81%30.06 "Hg10 mi
8:53 AM68 °FLight rain. Broken clouds.5 mph87%30.07 "Hg9 mi
7:53 AM68 °FBroken clouds.3 mph84%30.06 "Hg10 mi
6:53 AM68 °FOvercast.5 mph87%30.05 "Hg10 mi
5:53 AM68 °FPassing clouds.7 mph84%30.04 "Hg10 mi
4:53 AM68 °FPassing clouds.No wind84%30.03 "Hg10 mi
3:53 AM68 °FMostly cloudy.5 mph82%30.02 "Hg10 mi
2:53 AM68 °FLight rain. Overcast.No wind84%30.03 "Hg10 mi
1:53 AM67 °FPassing clouds.5 mph87%30.04 "Hg10 mi
12:53 AM68 °FOvercast.6 mph82%30.05 "Hg10 mi
11:53 PM
Jul 28
69 °FOvercast.14 mph79%30.06 "Hg10 mi
10:53 PM70 °FPassing clouds.12 mph73%30.07 "Hg10 mi
9:53 PM69 °FPassing clouds.5 mph84%30.05 "Hg10 mi
8:53 PM69 °FCloudy.9 mph79%30.03 "Hg10 mi
7:53 PM68 °FMostly cloudy.10 mph84%30.05 "Hg10 mi
6:53 PM68 °FLight rain. Cloudy.12 mph87%30.08 "Hg7 mi
5:53 PM68 °FLight rain. Mostly cloudy.22 mph82%30.09 "Hg10 mi
Weather by CustomWeather, © 2014

See weather overviewHow to use our weather pages